{"data":{"norad_id":67458,"intl_designator":"2026-008P","name":"STARLINK-36528","alt_names":[],"object_type":"PAYLOAD","status":"ACTIVE","operator":null,"country":"US","launch_date":"2026-01-14","launch_site_code":"AFETR","launch_vehicle":null,"mission":null,"orbit_class":"UNKNOWN","rcs_meters":null,"size_class":null,"mass_kg":null,"dimensions":null,"purposes":["comms"],"wikipedia_slug":null,"has_3d_model":false,"image_url":null,"decayed_at":null,"tle_current":{"epoch":"2026-09-19T03:33:34.182720Z","epoch_age_seconds":188996,"freshness":"STALE","line1":"1 67458U 26008P   26262.14831230  .00014470  00000+0  53419-3 0  9996","line2":"2 67458  43.0020 192.2776 0001351 271.2111  88.8586 15.27588838 39167","mean_motion":15.27588838,"eccentricity":0.0001351,"inclination_deg":43.002,"raan_deg":192.2776,"arg_perigee_deg":271.2111,"mean_anomaly_deg":88.8586,"bstar":0.00053419,"rev_number":3916,"period_min":94.26620332506,"perigee_km":482.09568934951,"apogee_km":483.94957468208,"semimajor_km":6861.1596320158,"source":"CELESTRAK","updated_at":"2026-09-20T09:00:43.550071Z"}}}